Regional Weather Roundup
Issued by NWS

Home | Current Version | Previous Version | Graphics & Text | Print | Product List | Glossary On
Versions: 1 2 3 4 5 6 7 8 9 10 11 12 13 14 15 16 17 18 19 20 21 22 23 24 25 26 27 28 29 30 31 32 33 34 35 36 37 38 39 40 41 42 43 44 45 46 47 48 49 50
000
ASUS43 KIND 310209
RWRIN

WEATHER ROUNDUP FOR INDIANA
NATIONAL WEATHER SERVICE INDIANAPOLIS IN
1000 PM EDT WED JUL 30 2014

NOTE: "FAIR" INDICATES FEW OR NO CLOUDS BELOW 12,000 FEET WITH NO
SIGNIFICANT WEATHER AND/OR OBSTRUCTIONS TO VISIBILITY.

* - STATION DOES NOT REPORT WEATHER SUCH AS PRECIPITATION OR FOG.

+ - STATION NOT QUALITY CONTROLLED BY THE NATIONAL WEATHER SERVICE.
    USE DATA WITH CAUTION...ESPECIALLY DEWPOINT AND RELATIVE
    HUMIDITY OBSERVATIONS.

INZ001>003-010>013-019-020-310300-
NORTHWEST INDIANA

CITY           SKY/WX    TMP DP  RH WIND       PRES   REMARKS
GARY /AIRPORT/ PTCLDY    63  59  88 CALM      30.03R
KNOX *+        PTCLDY    61  57  85 CALM      30.02R
LA PORTE +     PTCLDY    60  56  84 CALM      30.04R
MICHIGAN CITY+ CLEAR     59  59 100 CALM      30.04R FOG
MONTICELLO +   CLEAR     66  61  84 W3        30.02R
RENSSELAER +   CLEAR     63  63 100 CALM      30.03R
VALPARAISO     CLEAR     62  57  83 CALM      30.04R

$$

LMZ046-743>745-310300-
SOUTHERN LAKE MICHIGAN

STATION/POSITION TIME  TEMP WIND        PRES
                       AIR  DIR/SP/G
                 (UTC) (F)  (DEG/KT/KT) (MB)
MICHIGAN CITY    0200   64   30/  6/  8   N/A

$$

INZ004-005-014>016-021>024-310300-
NORTH CENTRAL INDIANA

CITY           SKY/WX    TMP DP  RH WIND       PRES   REMARKS
GOSHEN         CLEAR     65  56  72 CALM      30.02R
LOGANSPORT +   CLEAR     64  57  77 CALM      30.03S
PERU/GRISSOM   CLEAR     69  63  82 NW1       30.03R
ROCHESTER +    PTCLDY    64  64 100 CALM      30.04R FOG
SOUTH BEND     CLEAR     63  56  78 N3        30.04R
WARSAW +       MOCLDY    66  55  68 CALM      30.03R

$$

INZ006>009-017-018-025>027-310300-
NORTHEAST INDIANA

CITY           SKY/WX    TMP DP  RH WIND       PRES   REMARKS
ANGOLA *+      CLEAR     64  57  77 CALM      30.02S
AUBURN +       CLEAR     64  54  68 CALM      30.03S
FORT WAYNE     PTCLDY    66  60  81 W5        30.03R
HUNTINGTON +   CLOUDY    65  62  90 CALM      30.03R

$$

INZ028-029-035-036-043>045-051>053-310300-
WEST CENTRAL INDIANA

CITY           SKY/WX    TMP DP  RH WIND       PRES   REMARKS
GREENCASTLE +  PTCLDY    64  61  88 CALM      30.06R
LAFAYETTE      CLEAR     67  61  81 CALM      30.03R
TERRE HAUTE    CLEAR     67  60  78 CALM      30.05R

$$

INZ030>032-037>040-046>048-054>057-064-065-310300-
CENTRAL INDIANA

CITY           SKY/WX    TMP DP  RH WIND       PRES   REMARKS
CP ATTERBURY + CLOUDY    68  61  77 CALM      30.06S
COLUMBUS       MOCLDY    68  66  94 CALM      30.06R
INDIANAPOLIS   MOCLDY    66  62  87 SW7       30.04R
-EAGLE CREEK   CLEAR     67  62  84 CALM      30.04R
KOKOMO *+      CLEAR     68  59  73 W7        30.04R
MARION +       PTCLDY    64  60  87 NW3       30.04R
MT COMFORT *+  CLEAR     64  64 100 SW6       30.06R
SHELBYVILLE    MOCLDY    67  61  81 SW8       30.05R
ZIONSVILLE +   CLEAR     67  60  79 CALM      30.06R

$$

INZ033-034-041-042-049-050-058-059-310300-
EAST CENTRAL INDIANA

CITY           SKY/WX    TMP DP  RH WIND       PRES   REMARKS
MUNCIE         CLEAR     68  59  73 SW8       30.04R

$$

INZ060-061-067>069-081>083-085>088-310300-
SOUTHWEST INDIANA

CITY           SKY/WX    TMP DP  RH WIND       PRES   REMARKS
EVANSVILLE     PTCLDY    73  60  63 W6        30.06S
WASHINGTON +   PTCLDY    64  63  94 SW5       30.05R

$$

INZ062-063-066-070>080-084-089>092-310300-
SOUTH CENTRAL AND SOUTHEAST INDIANA

CITY           SKY/WX    TMP DP  RH WIND       PRES   REMARKS
BLOOMINGTON    CLEAR     64  61  90 CALM      30.06R
SEYMOUR +      CLOUDY    64  54  68 CALM      30.06

$$



USA.gov is the U.S. government's official web portal to all federal, state and local government web resources and services.